Location: Borbetomagus
(49.6328°N, 8.3592°E)
Time: 19:20:30
(UTC+00:00)

SL-24 DEB - Pass Details

Date: 19 May 2025
Orbit: 638 x 664 km, 92.0° (Epoch: 20 June)

Event Time Altitude Azimuth Distance (km) Brightness Sun altitude
Exits shadow 21:14:46 20° 179° (S) 1,485 5.5 -14.8°
Maximum altitude 21:17:51 81° 265° (W) 667 4.2 -15.1°
Drops below altitude 10° 21:22:26 10° 354° (N) 2,081 7.8 -15.4°
Sets 21:24:42 0° 355° (N) 3,002 8.8 -15.6°
